Terminal Aerodrome Forecast
Issued by NWS Salt Lake City, UT

Home | Current Version | Previous Version | Text Only | Print | Product List | Glossary On
Versions: 1 2 3 4 5 6 7 8 9 10 11 12 13 14 15 16 17 18 19 20 21 22 23 24 25 26 27 28 29 30 31 32 33 34 35 36 37 38 39 40 41 42 43 44 45 46 47 48 49 50
014
FTUS45 KSLC 262332
TAFSLC
TAF
KSLC 262332Z 2700/2806 33010G17KT P6SM SCT090
     FM270200 32007KT P6SM SCT100
     FM270800 34007KT P6SM SKC
     FM271600 33010KT P6SM FEW090
     FM280400 15004KT P6SM SKC=

USA.gov is the U.S. government's official web portal to all federal, state and local government web resources and services.